{"data":{"norad_id":64223,"epoch":"2026-09-20T11:27:56.372256Z","epoch_age_seconds":139622,"freshness":"FRESH","line1":"1 64223U 25117W   26263.47773579  .00019580  00000+0  58892-3 0  9998","line2":"2 64223  53.1594 211.6424 0000521  62.7731 297.3324 15.34410816 74396","mean_motion":15.34410816,"eccentricity":5.21e-5,"inclination_deg":53.1594,"raan_deg":211.6424,"arg_perigee_deg":62.7731,"mean_anomaly_deg":297.3324,"bstar":0.00058892,"rev_number":7439,"period_min":93.84709655227,"perigee_km":462.31468686293,"apogee_km":463.02749906622,"semimajor_km":6840.8080929646,"source":"CELESTRAK","updated_at":"2026-09-21T09:00:35.274472Z"}}